Wind_Speed
138 137 133 128 123 122 124 124 123 122 120 120 122 123 124 124 122 121 120 119 119 118 117 115 114 113 112 112 111 111 110 110 110 109 108 107 107 106 106 105 104 103
141 140 140 138 132 127 125 126 126 124 123 122 122 123 124 126 126 125 123 122 121 120 119 119 117 116 115 115 114 113 112 112 112 112 111 110 109 109 109 108 107 107
145 143 143 144 141 136 131 128 127 127 125 125 125 125 125 125 127 127 127 126 124 123 122 121 121 120 119 119 118 117 116 114 113 113 112 112 111 111 111 111 110 110
148 147 146 146 146 144 139 134 131 130 129 127 126 126 126 127 127 128 129 129 128 127 125 123 123 123 123 123 122 122 120 119 117 115 113 113 113 113 113 113 113 113
150 150 149 148 148 148 146 142 137 134 132 132 131 129 127 127 128 129 130 130 130 129 128 126 125 124 125 125 125 125 124 123 121 119 117 116 115 115 115 116 115 115
152 152 151 150 150 150 150 148 144 139 136 135 135 134 132 128 127 127 129 130 131 131 130 129 128 126 126 126 127 127 127 126 125 124 122 120 119 118 118 118 118 117
153 154 154 153 152 152 152 151 149 146 142 139 138 138 137 135 131 128 127 128 130 131 131 131 130 129 127 126 126 127 127 127 127 126 125 124 123 122 121 121 120 120
152 154 155 155 154 154 153 153 153 151 148 145 143 141 140 140 138 134 130 128 128 130 131 132 132 132 130 128 127 126 126 126 126 126 126 125 124 124 123 124 123 122
151 153 155 156 157 156 155 155 155 155 153 151 148 146 144 143 142 141 138 134 131 130 130 131 132 133 133 132 130 128 127 126 125 125 125 125 125 125 125 125 125 125
150 152 154 156 157 158 158 158 157 157 157 155 153 151 149 147 146 145 144 141 138 134 132 131 132 133 134 135 134 133 130 129 127 126 126 126 126 126 126 126 127 127
149 151 152 154 156 158 159 159 159 159 159 158 158 156 154 152 150 148 148 146 144 141 138 136 134 134 134 135 136 136 135 133 132 130 129 128 128 128 128 128 128 128
148 150 151 153 155 157 158 159 160 160 161 160 160 160 159 157 155 153 151 150 149 148 146 143 140 138 136 136 136 137 137 137 136 135 134 132 131 130 130 129 129 130
146 148 150 152 154 155 157 158 159 160 161 162 162 162 162 161 160 158 155 154 153 152 151 150 148 145 143 140 139 138 138 138 138 138 137 135 133 132 131 131 130 130
145 147 149 151 153 155 156 158 159 160 160 161 162 163 163 163 163 162 160 158 156 156 155 155 154 153 150 148 146 144 142 141 140 139 139 138 137 135 134 134 133 133
144 146 148 149 151 153 155 157 158 159 160 161 162 163 163 163 163 163 163 162 160 159 158 158 158 157 156 155 153 152 150 148 146 144 143 142 142 141 141 140 139 139
143 145 146 148 150 152 154 155 157 159 160 161 161 162 163 164 164 164 164 163 163 162 161 160 160 160 160 159 158 157 156 154 153 151 149 148 146 145 145 145 145 145
142 143 145 147 149 150 152 154 156 157 159 160 161 162 162 163 164 164 164 164 164 163 163 163 162 162 162 162 162 161 160 159 158 157 156 155 153 151 150 149 148 148
142 143 144 146 147 149 151 152 154 156 157 159 160 161 162 163 163 164 164 165 164 164 163 163 164 164 164 164 164 164 163 163 162 162 161 161 160 158 157 155 154 153
143 144 144 145 146 148 149 151 153 154 156 157 159 160 161 162 163 163 164 164 165 165 164 163 163 164 164 165 166 166 166 166 165 165 164 164 164 164 163 162 161 160
145 145 145 146 146 147 148 150 151 153 155 156 157 159 160 161 162 163 164 164 164 164 165 164 164 164 164 165 165 166 167 168 168 167 166 166 166 166 166 166 165 165
147 146 147 147 147 148 148 149 150 152 153 155 156 157 158 159 161 162 163 164 164 164 164 164 165 165 165 165 165 165 166 167 168 168 168 168 168 168 168 168 168 168
148 149 149 149 149 149 149 150 151 151 152 153 154 156 157 158 160 161 161 162 163 164 164 164 164 165 165 165 165 166 166 166 166 167 167 168 168 169 169 169 169 169
150 150 150 151 151 151 151 151 151 152 152 153 154 154 156 157 158 160 161 161 162 162 162 162 163 164 165 165 165 165 166 166 166 166 166 166 167 167 168 169 170 170
151 151 151 151 152 152 153 153 153 153 153 154 154 154 155 156 157 158 159 160 161 162 162 162 162 162 164 164 165 165 165 165 165 165 165 165 165 165 166 167 167 168
151 152 152 152 153 153 154 154 154 155 155 155 155 155 155 156 156 157 157 158 159 160 161 161 161 161 162 163 164 164 165 165 165 165 164 164 164 164 165 165 165 165
151 151 152 153 153 154 155 155 155 156 156 156 156 156 156 156 157 157 157 157 158 159 159 160 160 160 161 162 163 163 164 164 164 164 164 164 164 164 164 164 164 164
Wind_Direction
234 233 232 232 233 234 235 236 236 236 237 238 240 241 241 242 242 242 243 243 244 245 245 246 247 248 249 251 252 253 254 254 255 255 256 256 256 256 257 257 257 257
234 234 233 233 233 234 235 235 236 237 237 238 239 240 241 242 242 242 243 243 243 244 245 246 246 247 248 249 251 252 252 253 254 255 255 256 256 257 257 257 258 258
234 234 234 234 234 235 235 235 235 236 237 238 239 239 240 241 242 242 243 243 243 244 244 245 246 247 248 249 249 250 251 251 252 253 254 255 256 257 257 258 258 259
234 235 234 234 235 235 235 235 235 236 236 237 238 239 240 241 242 242 243 243 243 244 245 246 246 247 248 249 249 249 249 250 250 251 252 253 254 256 257 258 258 259
235 235 235 235 235 235 236 236 236 236 236 237 237 238 240 240 241 242 243 243 244 244 245 246 247 248 248 249 249 249 249 249 249 250 250 251 252 253 255 256 257 258
235 235 236 236 235 235 236 236 236 236 236 236 237 238 239 240 240 241 242 243 243 244 244 245 246 247 248 249 250 250 250 249 249 249 250 250 251 252 253 254 255 257
235 236 236 237 237 236 236 236 237 237 236 236 237 237 238 239 240 240 241 242 242 243 243 244 245 246 248 249 249 250 250 251 250 251 251 251 251 252 252 253 254 255
236 236 237 237 238 238 238 237 237 237 238 237 237 237 238 238 239 240 240 241 242 242 243 243 243 244 246 247 249 249 250 251 251 252 252 252 252 253 253 254 254 255
236 237 237 237 238 238 239 239 239 239 238 238 238 238 239 239 239 240 240 240 241 241 242 243 243 243 244 245 247 248 250 250 251 252 253 254 254 254 254 255 256 256
237 237 237 238 238 238 239 239 240 240 240 240 239 239 239 240 240 240 240 240 241 241 241 242 243 243 244 244 245 246 248 250 251 252 252 253 254 255 256 256 257 258
237 237 238 238 238 239 239 240 240 240 241 241 241 241 240 240 240 241 241 241 241 241 241 242 243 243 244 244 245 245 246 248 250 251 252 253 254 255 256 256 257 258
237 237 238 238 238 239 239 240 240 241 241 241 241 242 242 241 241 241 242 242 242 242 242 242 242 243 243 244 245 246 246 247 249 250 251 252 253 254 255 256 256 257
238 238 238 238 238 239 239 240 240 241 241 242 242 242 243 243 243 242 242 242 242 243 243 243 243 243 243 244 244 245 246 247 248 250 251 252 253 253 254 255 256 256
238 238 238 238 239 239 239 240 240 241 241 242 242 243 243 243 244 244 244 243 243 243 243 244 244 244 244 244 244 245 246 246 247 249 250 251 252 252 253 254 255 256
238 239 239 239 239 239 240 240 241 241 242 242 242 243 243 244 244 244 245 245 245 244 244 244 244 245 246 246 246 246 246 247 247 248 248 249 250 251 253 254 255 256
239 239 239 239 239 240 240 240 241 241 242 242 243 243 243 244 244 245 245 245 246 246 245 245 245 245 246 246 247 248 248 248 248 248 248 249 249 250 251 252 253 254
239 239 239 240 240 240 240 240 241 241 242 242 243 243 244 244 244 245 245 245 246 246 246 246 246 246 246 246 247 247 248 249 250 250 250 250 250 251 251 251 252 253
239 239 240 240 240 240 241 241 241 241 242 242 243 243 244 244 245 245 245 246 246 246 247 247 247 247 247 248 247 248 248 248 249 250 251 252 252 253 253 253 253 253
239 240 240 240 240 240 240 241 241 241 242 242 243 243 244 245 245 245 245 246 246 247 247 247 247 248 248 248 249 249 249 249 249 250 251 251 252 253 254 254 254 255
240 240 240 240 240 240 241 241 241 241 242 242 243 243 244 244 245 246 246 246 246 247 247 248 248 248 248 249 249 249 249 250 250 251 251 251 252 252 253 254 255 255
241 241 241 241 241 241 241 241 241 241 242 242 242 243 243 244 245 245 246 246 247 247 248 248 248 249 249 249 250 250 250 250 250 251 251 252 253 253 253 254 254 255
241 241 242 242 241 241 241 241 242 242 242 242 242 243 243 244 244 245 245 246 247 247 248 248 249 249 249 250 250 250 251 251 251 251 252 252 253 253 254 254 255 255
242 242 242 242 242 242 242 242 242 242 242 243 243 243 243 244 244 245 245 245 246 247 247 248 249 250 250 250 251 251 251 251 252 252 252 253 253 253 254 254 255 255
242 242 242 242 242 242 243 243 243 243 243 243 243 243 243 244 244 245 245 245 246 246 247 247 248 249 250 251 251 252 252 252 252 253 253 253 254 254 255 255 255 256
243 242 242 243 243 243 243 243 243 243 243 243 243 243 244 244 244 245 245 246 246 246 247 247 247 248 249 250 251 251 252 253 253 253 254 254 254 255 255 255 256 256
244 243 243 243 243 243 244 244 244 244 244 244 244 244 244 244 244 245 245 245 246 247 247 247 247 248 248 249 250 250 251 252 253 253 254 254 255 255 255 255 256 256
Height
10535 10540 10546 10551 10556 10560 10563 10567 10570 10573 10576 10579 10582 10586 10590 10594 10598 10601 10604 10607 10609 10611 10613 10615 10617 10619 10621 10623 10625 10627 10630 10632 10634 10636 10639 10640 10640 10641 10644 10647 10648 10648
10520 10524 10529 10535 10541 10546 10550 10553 10557 10561 10564 10567 10569 10573 10576 10580 10584 10588 10591 10594 10597 10600 10601 10603 10606 10608 10610 10612 10614 10616 10618 10621 10623 10624 10628 10629 10629 10630 10632 10635 10637 10637
10505 10510 10514 10518 10524 10530 10536 10540 10543 10547 10551 10554 10557 10560 10564 10567 10571 10574 10578 10581 10585 10588 10590 10591 10594 10596 10599 10601 10604 10606 10607 10610 10611 10613 10616 10618 10618 10619 10620 10623 10624 10625
10489 10494 10499 10503 10508 10513 10519 10525 10530 10533 10537 10540 10543 10547 10550 10554 10558 10561 10564 10568 10571 10575 10577 10579 10581 10584 10586 10589 10592 10594 10596 10598 10599 10602 10604 10606 10607 10607 10608 10610 10611 10612
10473 10478 10483 10488 10493 10497 10502 10508 10514 10519 10523 10526 10530 10533 10537 10540 10544 10547 10551 10555 10558 10562 10565 10567 10569 10571 10573 10576 10579 10582 10584 10586 10588 10590 10592 10595 10596 10596 10596 10596 10598 10600
10457 10462 10466 10471 10477 10482 10486 10491 10497 10503 10508 10512 10516 10519 10523 10526 10530 10533 10537 10541 10545 10548 10552 10554 10557 10559 10561 10563 10566 10568 10571 10574 10576 10578 10580 10582 10584 10585 10585 10585 10586 10588
10441 10446 10451 10455 10460 10466 10471 10475 10480 10486 10491 10497 10501 10504 10508 10512 10515 10519 10523 10526 10531 10534 10538 10541 10544 10547 10549 10550 10553 10555 10558 10561 10563 10565 10567 10569 10572 10573 10573 10574 10575 10577
10425 10430 10435 10439 10444 10449 10454 10459 10463 10468 10474 10479 10485 10489 10493 10497 10500 10504 10508 10512 10516 10520 10524 10527 10531 10534 10536 10538 10540 10542 10545 10547 10550 10552 10553 10555 10558 10560 10561 10562 10563 10565
10408 10413 10418 10423 10428 10433 10437 10442 10446 10451 10457 10462 10467 10472 10477 10481 10485 10489 10493 10497 10502 10505 10509 10513 10517 10520 10523 10526 10528 10530 10532 10534 10537 10539 10541 10542 10544 10546 10548 10549 10550 10552
10391 10396 10401 10406 10411 10416 10421 10425 10430 10434 10439 10444 10450 10455 10460 10464 10468 10473 10477 10481 10486 10490 10495 10498 10502 10505 10509 10512 10515 10517 10519 10521 10524 10526 10528 10529 10530 10532 10534 10535 10536 10537
10374 10379 10384 10389 10394 10399 10404 10408 10413 10418 10422 10426 10432 10437 10442 10447 10452 10456 10460 10465 10470 10474 10479 10483 10487 10490 10494 10498 10501 10504 10506 10508 10511 10513 10515 10517 10518 10519 10521 10523 10524 10524
10357 10362 10367 10372 10376 10382 10387 10391 10396 10401 10405 10410 10414 10419 10424 10429 10435 10440 10444 10448 10453 10457 10462 10466 10471 10475 10479 10483 10486 10489 10492 10495 10497 10499 10501 10504 10505 10506 10508 10510 10511 10512
10340 10345 10350 10355 10359 10364 10369 10374 10379 10384 10388 10392 10397 10402 10406 10411 10416 10422 10427 10432 10436 10440 10445 10449 10454 10459 10463 10467 10471 10474 10478 10481 10483 10485 10488 10490 10492 10493 10495 10496 10498 10499
10323 10328 10333 10338 10343 10347 10352 10356 10361 10366 10371 10375 10380 10385 10389 10394 10398 10403 10409 10414 10419 10423 10428 10432 10437 10442 10446 10450 10454 10458 10462 10465 10468 10471 10473 10476 10478 10480 10481 10482 10484 10485
10306 10311 10316 10321 10326 10330 10335 10339 10344 10348 10353 10358 10362 10367 10372 10376 10381 10386 10391 10396 10401 10406 10411 10416 10420 10425 10429 10433 10437 10441 10445 10449 10452 10455 10458 10461 10463 10465 10466 10468 10469 10471
10289 10294 10298 10303 10308 10313 10317 10322 10326 10331 10335 10340 10345 10350 10354 10359 10363 10369 10374 10378 10383 10388 10393 10398 10403 10408 10412 10416 10419 10423 10427 10431 10434 10438 10441 10444 10447 10449 10451 10453 10454 10456
10271 10276 10281 10286 10291 10295 10300 10304 10309 10313 10318 10322 10327 10332 10337 10342 10346 10350 10356 10361 10366 10370 10375 10380 10385 10390 10395 10399 10402 10406 10410 10413 10417 10419 10423 10426 10429 10432 10434 10436 10439 10441
10253 10258 10263 10268 10273 10278 10282 10287 10291 10296 10300 10305 10309 10314 10319 10323 10328 10333 10338 10343 10348 10353 10358 10363 10368 10372 10376 10380 10384 10388 10393 10396 10400 10402 10405 10408 10411 10414 10417 10419 10421 10424
10235 10239 10244 10249 10254 10259 10264 10268 10273 10278 10282 10287 10292 10297 10301 10305 10309 10314 10320 10325 10330 10335 10340 10345 10350 10354 10358 10361 10365 10369 10374 10378 10382 10386 10389 10391 10394 10396 10399 10401 10403 10405
10216 10221 10226 10230 10235 10240 10245 10249 10254 10259 10264 10269 10274 10279 10284 10288 10292 10296 10301 10306 10312 10317 10322 10327 10331 10335 10339 10343 10347 10350 10355 10359 10364 10368 10371 10374 10376 10379 10381 10383 10385 10387
10197 10202 10207 10212 10216 10221 10226 10231 10235 10240 10245 10250 10256 10261 10265 10270 10274 10278 10283 10287 10292 10298 10304 10309 10313 10316 10320 10325 10328 10332 10336 10340 10345 10349 10352 10356 10358 10361 10363 10366 10368 10370
10177 10183 10188 10192 10197 10203 10208 10212 10217 10222 10226 10231 10237 10243 10247 10251 10256 10260 10265 10270 10274 10279 10286 10291 10294 10296 10301 10306 10309 10313 10317 10321 10325 10330 10334 10337 10341 10343 10345 10347 10350 10353
10157 10163 10168 10173 10178 10183 10188 10193 10198 10203 10208 10212 10219 10224 10228 10233 10237 10242 10246 10251 10256 10261 10267 10274 10277 10278 10281 10286 10290 10293 10297 10302 10306 10311 10315 10319 10323 10325 10328 10330 10332 10335
10136 10143 10148 10153 10158 10163 10168 10173 10178 10183 10188 10193 10199 10205 10210 10214 10219 10224 10229 10233 10238 10243 10248 10256 10261 10262 10262 10266 10271 10274 10278 10282 10287 10292 10297 10301 10304 10307 10309 10312 10314 10317
10116 10123 10129 10134 10138 10143 10147 10152 10158 10163 10168 10174 10180 10186 10191 10195 10200 10206 10211 10215 10219 10225 10230 10236 10243 10246 10246 10248 10252 10256 10259 10263 10268 10273 10278 10282 10285 10288 10290 10293 10296 10299
10097 10103 10109 10115 10119 10123 10127 10132 10137 10143 10148 10153 10159 10166 10171 10176 10181 10186 10192 10197 10200 10205 10211 10217 10223 10228 10229 10230 10233 10237 10241 10245 10249 10253 10258 10262 10264 10267 10270 10274 10277 10280